Regional Weather Roundup
Issued by NWS

Home | Current Version | Previous Version | Graphics & Text | Print | Product List | Glossary On
Versions: 1 2 3 4 5 6 7 8 9 10 11 12 13 14 15 16 17 18 19 20 21 22 23 24 25 26 27 28 29 30 31 32 33 34 35 36 37 38 39 40 41 42 43 44 45 46 47 48 49 50
925
ASUS45 KBOI 222110
RWRID

IDAHO REGIONAL WEATHER ROUNDUP
NATIONAL WEATHER SERVICE BOISE ID
300 PM MDT SUN OCT 22 2017

NOTE: "FAIR" INDICATES FEW OR NO CLOUDS BELOW 12000 FEET
WITH NO SIGNIFICANT WEATHER AND/OR OBSTRUCTIONS TO VISIBILITY

IDZ012-014-222200-
SOUTHWEST IDAHO


CITY           SKY/WX    TMP DP  RH WIND       PRES   REMARKS
BOISE          CLOUDY    62  42  47 SE6       30.26F
CALDWELL       CLOUDY    65  47  52 N3        30.24F
MOUNTAIN HOME  PTSUNNY   62  43  49 CALM      30.27S
$$

IDZ016-017-222200-
SOUTHCENTRAL IDAHO


CITY           SKY/WX    TMP DP  RH WIND       PRES   REMARKS
BURLEY         PTSUNNY   61  38  42 W12G23    30.27F
JEROME         PTSUNNY   59  43  55 SW17      30.28F
TWIN FALLS     PTSUNNY   62  41  46 W15       30.28F
$$

IDZ019>023-222200-
SOUTHEAST IDAHO


CITY           SKY/WX    TMP DP  RH WIND       PRES   REMARKS
IDAHO FALLS    MOSUNNY   57  38  48 SW26G41   30.20F
POCATELLO      PTSUNNY   62  36  37 SW32      30.26F
REXBURG        CLOUDY    55  36  48 SW22G32   30.17F
$$

IDZ006-010-011-018-031-032-222200-
CENTRAL IDAHO MOUNTAINS


CITY           SKY/WX    TMP DP  RH WIND       PRES   REMARKS
MCCALL         CLOUDY    46  40  79 SW10      30.23R
HAILEY         PTSUNNY   55  37  50 NW16G25   30.26S
STANLEY          N/A     46  38  73 S8G17     30.26S
SALMON         MOSUNNY   59  37  44 SW22G30   30.08R
CHALLIS        PTSUNNY   57  35  43 SW14G24   30.14S
$$

IDZ002-004-006-007-026-222200-
NORTHERN IDAHO


CITY           SKY/WX    TMP DP  RH WIND       PRES   REMARKS
LEWISTON       CLOUDY    62  40  44 W23G33    30.17R
LOWELL           N/A     51  49  92 W3        30.19R
COEUR D`ALENE  MOSUNNY   54  38  54 SW21G33   30.10R
MULLAN PASS    PTSUNNY   35  27  72 W9G31     30.06R WCI  28
$$




USA.gov is the U.S. government's official web portal to all federal, state and local government web resources and services.